Weather History for KDAG - December, 2012

Change the Weather History Date:

Saturday, December 15, 2012

  Actual Average Record
Temperature  
Mean Temperature 44 °F -  
Max Temperature 52 °F 60 °F 80 °F (1981)
Min Temperature 37 °F 35 °F 19 °F (1987)
Degree Days  
Heating Degree Days 20    
Moisture  
Dew Point 28 °F    
Average Humidity 52    
Maximum Humidity 74    
Minimum Humidity 37    
Precipitation  
Precipitation 0.00 in - - ()
Sea Level Pressure  
Sea Level Pressure 29.96 in    
Wind  
Wind Speed 12 mph (West)    
Max Wind Speed 17 mph    
Max Gust Speed 26 mph    
Visibility 10 miles    
Events Rain    
Averages and records for this station are not official NWS values.
T = Trace of Precipitation, MM = Missing Value Source: NWS Daily Summary

Daily Weather History Graph

Daily Weather History Graph

Search for Another Location

Airport or City:

Trip Planner

Search our weather history database for the weather conditions in past years. The results will help you decide how hot, cold, wet, or windy it might be!

Date:

Astronomy

Dec. 15, 2012 Rise Set
Actual Time 6:47 AM PST 4:37 PM PST
Civil Twilight 6:19 AM PST 5:05 PM PST
Nautical Twilight 5:48 AM PST 5:37 PM PST
Astronomical Twilight 5:17 AM PST 6:08 PM PST
Moon 8:48 AM PST (12/15) 7:41 PM PST (12/15)
Length of Visible Light 10h 45m
Length of Day
9h 49m
Waxing Crescent, 9% of the Moon is Illuminated
Dec 15
Waxing Crescent
Dec 19
First Quarter
Dec 28
Full
Jan 4
Last Quarter
Jan 11
New

Hourly Weather History & Observations

Time (PST) Temp. Windchill Dew Point Humidity Pressure Visibility Wind Dir Wind Speed Gust Speed Precip Events Conditions
12:50 AM 43.0 °F 35.1 °F 35.1 °F 74% 29.90 in 10.0 mi WSW 17.3 mph - 0.00 in Rain Light Rain
1:50 AM 43.0 °F 38.2 °F 34.0 °F 71% 29.90 in 10.0 mi SW 8.1 mph - 0.00 in   Overcast
2:50 AM 45.0 °F 38.2 °F 33.1 °F 63% 29.89 in 10.0 mi WSW 15.0 mph - N/A   Overcast
3:50 AM 42.1 °F 34.9 °F 30.0 °F 62% 29.91 in 10.0 mi WSW 13.8 mph - N/A   Clear
4:50 AM 42.1 °F 34.5 °F 27.0 °F 55% 29.92 in 10.0 mi WSW 15.0 mph 25.3 mph N/A   Clear
5:50 AM 39.0 °F 31.0 °F 28.0 °F 65% 29.94 in 10.0 mi West 13.8 mph - N/A   Clear
6:50 AM 37.0 °F 31.0 °F 28.0 °F 70% 29.98 in 10.0 mi NW 8.1 mph - N/A   Clear
7:50 AM 37.9 °F 31.5 °F 28.0 °F 68% 30.00 in 10.0 mi WNW 9.2 mph - N/A   Clear
8:50 AM 42.1 °F 37.7 °F 28.9 °F 60% 30.01 in 10.0 mi WNW 6.9 mph - N/A   Clear
10:50 AM 46.9 °F - 28.9 °F 50% 30.01 in 10.0 mi West 15.0 mph - N/A   Clear
11:50 AM 50.0 °F - 28.9 °F 44% 29.99 in 10.0 mi WNW 13.8 mph - N/A   Clear
12:50 PM 51.1 °F - 28.0 °F 41% 29.97 in 10.0 mi West 12.7 mph - N/A   Clear
1:50 PM 52.0 °F - 27.0 °F 38% 29.96 in 10.0 mi WNW 11.5 mph - N/A   Clear
2:50 PM 52.0 °F - 26.1 °F 37% 29.95 in 10.0 mi West 13.8 mph - N/A   Clear
3:50 PM 51.1 °F - 27.0 °F 39% 29.94 in 10.0 mi West 9.2 mph - N/A   Clear
4:50 PM 48.9 °F - 28.0 °F 44% 29.94 in 10.0 mi West 5.8 mph - N/A   Clear
5:50 PM 46.9 °F - 30.0 °F 52% 29.96 in 10.0 mi Calm Calm - N/A   Clear
6:50 PM 46.9 °F - 28.9 °F 50% 29.96 in 10.0 mi West 5.8 mph - N/A   Clear
7:50 PM 46.9 °F - 27.0 °F 46% 29.97 in 10.0 mi WNW 5.8 mph - N/A   Scattered Clouds
8:50 PM 48.0 °F - 26.1 °F 42% 29.99 in 10.0 mi West 15.0 mph - N/A   Overcast
9:50 PM 46.9 °F - 26.1 °F 44% 30.00 in 10.0 mi WNW 8.1 mph - N/A   Overcast
10:50 PM 44.1 °F 39.5 °F 25.0 °F 47% 30.02 in 10.0 mi West 8.1 mph - N/A   Clear
11:50 PM 44.1 °F 36.8 °F 24.1 °F 45% 30.01 in 10.0 mi SW 16.1 mph 26.5 mph N/A   Clear